Other Public Products
Issued by NWS Grand Forks, ND

Home | Current Version | Previous Version | Graphics & Text | Print | Product List | Glossary On
Versions: 1 2 3 4 5 6 7 8 9 10 11 12 13 14 15 16 17 18 19 20 21 22 23 24 25 26 27 28 29 30 31 32 33 34 35 36 37 38 39 40 41 42 43 44 45 46 47 48 49 50
000
FPUS83 KFGF 272031
OPUFGF
PRAIRIE TO PINES WEATHER ROUNDUP
NATIONAL WEATHER SERVICE EASTERN NORTH DAKOTA/GRAND FORKS ND
300 PM CDT THU APR 27 2017

 **SATELLITE DATA USED TO AUGMENT SKY COVER AT AUTOMATED STATIONS**
 *****  WEATHER ACROSS EASTERN NORTH DAKOTA  *****

CITY           SKY/WX    TMP DP  RH WIND       PRES   REMARKS
GRAND FORKS    FAIR      44  31  60 N20G25    29.67F
GRAND FORKS AF PTSUNNY   43  30  61 N18       29.67F
GRAND CITY NWS NOT AVBL
BUXTON           N/A     40  30  66 N7          N/A
DEVILS LAKE    PTSUNNY   46  28  49 N22G28    29.69F
FARGO          PTSUNNY   35  25  66 N16       29.69S
WAHPETON ARPT  CLOUDY    36  27  69 N22       29.69S
$$

 *****  WEATHER ACROSS CENTRAL AND WESTERN NORTH DAKOTA  *****

CITY           SKY/WX    TMP DP  RH WIND       PRES   REMARKS
JAMESTOWN      FAIR      46  29  51 N16G24    29.68S
BISMARCK       FAIR      51  26  37 NE10      29.71F
MINOT          FAIR      50  15  24 N12       29.73F
MINOT AFB      FAIR      48   7  18 N10       29.73S
GARRISON         N/A     47  21  35 NE8       29.72S
WILLISTON      FAIR      51  18  27 SE13G20   29.73F
DICKINSON      FAIR      47  22  37 E16       29.67F
HETTINGER      FAIR      47  25  42 VRB5      29.68F
$$

 *****  OTHER OBSERVATIONS NORTHEAST NORTH DAKOTA  *****

CITY           SKY/WX    TMP DP  RH WIND       PRES   REMARKS
WALHALLA       NOT AVBL
LANGDON        FAIR      46  27  46 N21G31    29.69R
CAVALIER       MOCLDY    46  28  49 N22G30    29.67S
GRAFTON        MOCLDY    45  30  57 N18G26    29.68S
CANDO          NOT AVBL
FORT TOTTEN      N/A     48  29  47 N7        29.95S
ROLLA          FAIR      46  27  46 N21G30    29.72F
RUGBY          NOT AVBL
 ***** THE ABOVE OBSERVATIONS ARE NON NWS ARE NOT QUALITY
        CONTROLLED AND MAY MIS-REPORT RAIN FOR SNOW...
$$

 *****  OTHER OBSERVATIONS SOUTHEAST NORTH DAKOTA *****

CITY           SKY/WX    TMP DP  RH WIND       PRES   REMARKS
COOPERSTOWN    MOCLDY    45  32  61 N23       29.68S
VALLEY CITY    MOCLDY    45  28  53 N17G24    29.68F
OAKES          NOT AVBL
GWINNER        CLOUDY    41  32  70 MISG      29.69S
SHEYENNE NWR     N/A     38  26  61 N7        29.95S
BUFFALO          N/A     40  24  53 S13         N/A
WYNDMERE         N/A     37  28  70 N15         N/A
 ***** THE ABOVE OBSERVATIONS ARE NON NWS ARE NOT QUALITY
       CONTROLLED AND MAY MIS-REPORT RAIN FOR SNOW...
$$

  *****  WEATHER ACROSS NORTHERN MINNESOTA  *****

CITY           SKY/WX    TMP DP  RH WIND       PRES   REMARKS
FLAG ISLAND    CLOUDY    28  21  74 N18G24    29.63S WCI  16
WARROAD        PTSUNNY   30  25  80 N10       29.64S WCI  21
ROSEAU         CLOUDY    32  25  74 N10       29.65S WCI  24
HALLOCK        CLOUDY    43  30  61 N17       29.65S
THF RVR FALLS  CLOUDY    31  24  75 N13       29.66F WCI  21
HALSTAD          N/A     35  25  67 N10         N/A
FOSSTON        CLOUDY    30  21  69 N14       29.65S WCI  20
BAUDETTE       CLOUDY    28  19  69 N18G24    29.60S WCI  15
WASKISH        CLOUDY    28  21  74 N12       29.61S WCI  18
CROOKSTON      CLOUDY    36  27  69 N9        29.68S
$$
  *****  WEATHER ACROSS CENTRAL AND WEST MINNESOTA  *****

CITY           SKY/WX    TMP DP  RH WIND       PRES   REMARKS
BEMIDJI        CLOUDY    28  21  75 NW15      29.60S WCI  16
PARK RAPIDS    CLOUDY    30  19  63 NW16      29.60R WCI  19
WADENA         CLOUDY    28  25  86 NW10      29.62R WCI  19
DETROIT LAKES  CLOUDY    30  27  86 NW14      29.65S WCI  20
MOORHEAD       PTSUNNY   34  27  75 N18G24    29.69F WCI  23
FERGUS FALLS   CLOUDY    30  25  80 N21G26    29.67S WCI  17
ELBOW LAKE     CLOUDY    31  24  74 NW17G26   29.67R WCI  20
MORRIS MN      CLOUDY    34  25  69 NW23      29.66S WCI  22
STAPLES        CLOUDY    28  21  74 NW13      29.61S WCI  18
WHEATON        CLOUDY    36  25  64 NW20G25   29.71S
$$
  *****  WEATHER ELSEWHERE ACROSS MINNESOTA  *****

CITY           SKY/WX    TMP DP  RH WIND       PRES   REMARKS
DULUTH         CLOUDY    28  20  71 NW16G24   29.51R WCI  16
INTRNTL FALLS  CLOUDY    28  16  60 N13       29.57R WCI  17
ELY            CLOUDY    25  16  68 NW9G18    29.50S WCI  15
CLOQUET        CLOUDY    28  19  69 W12       29.54R WCI  18
BRAINERD       CLOUDY    28  21  75 NW14      29.59S WCI  17
HIBBING        CLOUDY    27  18  69 NW15      29.53R WCI  15
ALEXANDRIA     CLOUDY    31  22  69 NW17G23   29.63S WCI  19
SAINT CLOUD    CLOUDY    31  22  69 NW14      29.62R WCI  21
MINNEAPOLIS    CLOUDY    34  25  69 W15       29.61R WCI  24
$$

  *****  WEATHER ACROSS SOUTH DAKOTA  *****

CITY           SKY/WX    TMP DP  RH WIND       PRES   REMARKS
SIOUX FALLS    FAIR      47  33  58 NW12G21   29.68S
BROOKINGS      PTSUNNY   41  29  62 NW17G24   29.67S
WATERTOWN      FAIR      40  26  57 NW16      29.67S
HURON          FAIR      48  30  49 N13G20    29.70F
SISSETON         N/A     38  27  64 N16G25    29.69S
ABERDEEN       FAIR      44  27  51 N15       29.71F
MITCHELL       FAIR      47  30  51 N10G18    29.71F
PIERRE         PTSUNNY   44  29  55 NE5       29.69F
MOBRIDGE       FAIR      53  26  35 NE9       29.66F
RAPID CITY     CLOUDY    47  34  60 E16       29.63S
$$

  *****  SOME WEATHER IN NEARBY STATES *****

CITY           SKY/WX    TMP DP  RH WIND       PRES   REMARKS
GLASGOW MT     FAIR      54  26  34 SE12      29.68S
GREAT FALLS MT LGT RAIN  42  37  82 W15       29.70R
CHEYENNE WY    FLURRIES  34  32  92 NW6       29.56F
SCOTTSBLUFF NE CLOUDY    46  42  86 E6        29.55F
OMAHA NE       FAIR      53  35  50 VRB5      29.72S
DES MOINES IA  PTSUNNY   52  33  48 W9        29.70S
DAVENPORT IA   CLOUDY    42  34  73 W21G29    29.71R
CHICAGO IL     CLOUDY    46  37  71 W20G28    29.66R
EAU CLAIRE WI  CLOUDY    33  26  75 W14       29.57R WCI  23
LA CROSSE WI   CLOUDY    41  35  79 W14       29.59R
$$

  *****  SOME NATIONAL WEATHER *****

CITY           SKY/WX    TMP DP  RH WIND       PRES   REMARKS
LA GUARDIA NY  CLOUDY    68  57  68 SE13      29.87S
RALEIGH NC     PTSUNNY   82  57  42 S13       29.86F
ATLANTA GA     PTSUNNY   78  69  73 S15       29.81S
NEW ORLEANS LA FAIR      77  60  55 NW7       29.80F
OKLAHOMA CITY  PTSUNNY   62  47  57 SE21G29   29.63F
ALBUQUERQUE NM PTSUNNY   65  34  31 N23G32    29.63F
SALT LAKE CITY PTSUNNY   50  26  39 NW21G29   29.83F
LOS ANGELES CA PTSUNNY   68  54  60 W10       29.79F
BOISE ID       PTSUNNY   48  27  44 NW17      29.95F
SEATTLE WA     LGT RAIN  53  37  54 S8        30.07F
$$

*** WEATHER ACROSS MANITOBA...SASKATCHEWAN AND ONTARIO ***
                ***ONTARIO***

CITY           SKY/WX    TMP DP  RH WIND       PRES   REMARKS
GERALDTON      SLEET     30  28  93 N8G18     29.30F VSB 3/4 WCI  23
THUNDER BAY    LGT SNOW  23  19  86 W12G17    29.43F VSB 3/4 WCI  12
SIOUX LOOKOUT  FRZ DRZL  23  18  80 VRB5      29.56S DRFTSNOWWCI  17
TORONTO        PTSUNNY   77  59  53 S8        29.53F
BIG TROUT LK   CLOUDY    30   1  29 NE13G28   29.80F WCI  20
PICKLE LAKE    SNOW      23  21  93 N7G17     29.55S VSB 1/2 WCI  15
DRYDEN         LGT SNOW  25  19  80 N9G21     29.56S WCI  15
KENORA         LGT SNOW  27  19  74 N15       29.60F DRFTSNOWWCI  15
$$
                *** MANITOBA***

CITY           SKY/WX    TMP DP  RH WIND       PRES   REMARKS
BRANDON        MOSUNNY   48  27  43 NE24G31   29.77S
DAUPHIN        SUNNY     46  14  27 NE12G17   29.85S
ISLAND LAKE    PTSUNNY   41   1  19 NE9       29.91F
PILOT MOUND      N/A     45  25  45 N18G25      N/A
THE PAS        CLOUDY    45   7  21 E9        29.95S
THOMPSON       MOSUNNY   41   1  19 E5        30.00F
WINNIPEG       PTSUNNY   43  27  52 N28G37    29.71F
LYNN LAKE      SUNNY     43   9  24 E8        29.98F
CHURCHILL      SUNNY     36  14  41 S12       30.10S
GILLAM         PTSUNNY   37   1  22 NE7       30.06S
$$
                ***SASKATCHEWAN***

CITY           SKY/WX    TMP DP  RH WIND       PRES   REMARKS
ESTEVAN        MOSUNNY   46  14  27 E5G17     29.76F
KINDERSLEY     CLOUDY    36  32  87 E8        29.75R
LLOYDMINSTER   LGT SNOW  34  32  93 E17       29.80R WCI  23
PRINCE ALBERT  PTSUNNY   45  12  26 SE13G20   29.88R
REGINA         MOSUNNY   48  12  23 E8G20     29.77F
YORKTON        NOT AVBL


USA.gov is the U.S. government's official web portal to all federal, state and local government web resources and services.